TimeMDT,TemperatureF,Dew PointF,Humidity,Sea Level PressureIn,VisibilityMPH,Wind Direction,Wind SpeedMPH,Gust SpeedMPH,PrecipitationIn,Events,Conditions,WindDirDegrees,DateUTC
12:53 AM,26.1,16.0,66,30.07,10.0,East,3.5,-,N/A,,Clear,80,2013-03-19 06:53:00
1:53 AM,27.0,14.0,58,30.07,10.0,Calm,Calm,-,N/A,,Clear,0,2013-03-19 07:53:00
2:53 AM,24.1,14.0,65,30.12,10.0,SW,10.4,-,N/A,,Clear,220,2013-03-19 08:53:00
3:53 AM,21.9,14.0,72,30.14,10.0,ENE,5.8,-,N/A,,Clear,60,2013-03-19 09:53:00
4:53 AM,23.0,14.0,68,30.16,10.0,NE,6.9,-,N/A,,Clear,50,2013-03-19 10:53:00
5:53 AM,23.0,14.0,68,30.19,10.0,Calm,Calm,-,N/A,,Clear,0,2013-03-19 11:53:00
6:53 AM,21.9,14.0,72,30.23,10.0,ENE,3.5,-,N/A,,Clear,60,2013-03-19 12:53:00
7:53 AM,23.0,14.0,68,30.26,10.0,Calm,Calm,-,N/A,,Clear,0,2013-03-19 13:53:00
8:53 AM,28.9,12.0,49,30.28,10.0,Calm,Calm,-,N/A,,Clear,0,2013-03-19 14:53:00
9:53 AM,30.0,12.9,49,30.30,10.0,East,8.1,-,N/A,,Clear,80,2013-03-19 15:53:00
10:53 AM,34.0,5.0,30,30.28,10.0,SE,4.6,-,N/A,,Clear,130,2013-03-19 16:53:00
11:53 AM,35.1,3.9,27,30.30,10.0,Calm,Calm,-,N/A,,Clear,0,2013-03-19 17:53:00
12:53 PM,39.9,7.0,26,30.29,10.0,West,10.4,-,N/A,,Clear,260,2013-03-19 18:53:00
1:53 PM,43.0,3.9,20,30.25,10.0,WSW,15.0,-,N/A,,Clear,250,2013-03-19 19:53:00
2:53 PM,43.0,3.0,19,30.25,10.0,WNW,12.7,-,N/A,,Clear,290,2013-03-19 20:53:00
3:53 PM,44.1,3.9,19,30.25,10.0,WSW,10.4,-,N/A,,Clear,240,2013-03-19 21:53:00
4:53 PM,45.0,-0.9,15,30.25,10.0,West,6.9,-,N/A,,Clear,270,2013-03-19 22:53:00
5:53 PM,43.0,9.0,25,30.25,10.0,WSW,6.9,-,N/A,,Clear,240,2013-03-19 23:53:00
6:53 PM,37.0,19.0,48,30.28,10.0,SSW,9.2,-,N/A,,Clear,210,2013-03-20 00:53:00
7:53 PM,30.9,15.1,52,30.32,10.0,SSW,6.9,-,N/A,,Clear,200,2013-03-20 01:53:00
8:53 PM,27.0,18.0,69,30.32,10.0,NW,3.5,-,N/A,,Clear,320,2013-03-20 02:53:00
9:53 PM,24.1,17.1,75,30.35,10.0,Calm,Calm,-,N/A,,Clear,0,2013-03-20 03:53:00
10:53 PM,27.0,12.0,53,30.32,10.0,East,3.5,-,N/A,,Clear,90,2013-03-20 04:53:00
11:53 PM,25.0,14.0,63,30.33,10.0,Calm,Calm,-,N/A,,Clear,0,2013-03-20 05:53:00